Location: Albany
(35.0170°S, 117.8920°E)
Time: 01:49:56
(UTC+08:00)

A-11 Canister half - Pass Details

Date: 23 January 2021
Orbit: 1525 x 1684 km, 47.3° (Epoch: 01 March)

Event Time Altitude Azimuth Distance (km) Brightness Sun altitude
Rises 04:03:40 0° 283° (WNW) 4,934 - -14.0°
Reaches altitude 10° 04:06:59 10° 278° (W) 3,941 - -13.4°
Exits shadow 04:07:13 11° 278° (W) 3,877 10.6 -13.4°
Maximum altitude 04:16:51 54° 202° (SSW) 1,957 9.6 -11.8°
Drops below altitude 10° 04:26:28 10° 126° (SE) 3,848 12.7 -10.2°
Sets 04:29:41 0° 120° (ESE) 4,812 14.0 -9.6°
